Wind_Speed
15 16 16 16 17 17 17 17 18 20 20 21 21 22 22 22 21 22 22 22 22 21 22 22 22 22 22 21 21 20 19 18 17 15 14 14 14 14 14 14 13 14 14 14
16 17 17 17 17 17 18 19 20 20 21 21 21 22 22 22 22 23 22 22 22 21 21 21 21 21 20 20 19 18 17 16 15 14 14 14 14 14 14 14 14 14 14 13
17 17 18 18 18 18 19 20 20 20 21 21 22 23 22 21 22 23 23 22 21 20 20 20 20 19 19 18 17 17 16 15 14 13 13 14 14 15 14 13 14 14 13 13
17 18 18 19 18 19 19 20 20 20 21 21 22 22 21 21 22 22 22 21 20 19 19 19 19 18 18 18 16 15 15 14 14 13 13 14 14 14 14 14 14 13 13 13
19 19 20 20 19 19 20 20 20 20 21 21 21 21 22 21 22 22 21 20 19 18 18 18 17 17 17 16 15 14 14 14 13 13 13 14 14 14 14 14 14 13 13 13
21 21 21 21 20 20 21 21 20 20 21 21 21 21 22 22 21 21 21 19 19 18 18 17 17 16 16 15 13 13 13 13 12 12 13 13 13 14 14 14 14 13 13 14
22 22 23 22 21 21 21 22 21 20 21 21 21 21 22 22 21 21 20 19 18 18 17 17 17 16 15 13 12 12 12 12 12 12 13 13 14 14 13 13 13 13 13 14
23 24 24 23 22 22 22 22 21 21 21 21 22 22 21 21 20 20 19 19 18 17 17 16 16 15 14 13 13 12 12 12 12 12 13 13 13 13 12 13 12 13 13 14
24 24 25 24 23 23 23 22 22 22 22 22 22 21 21 21 20 19 19 18 18 17 16 15 14 13 12 13 12 12 12 12 12 12 13 13 13 12 12 13 13 13 13 14
26 25 25 25 24 24 24 24 24 24 23 23 22 21 21 21 20 19 18 18 17 15 14 13 13 12 11 11 11 11 11 11 11 12 12 12 12 12 12 12 13 13 14 14
27 27 27 26 26 26 26 25 25 25 24 23 23 22 22 21 20 18 17 16 15 14 13 12 11 11 11 11 10 10 9 10 10 11 11 10 11 11 11 12 13 14 15 15
29 29 28 27 27 26 26 26 26 26 25 24 24 23 23 21 20 18 16 16 14 13 13 12 11 10 10 10 9 9 9 9 9 9 9 9 10 10 10 11 13 15 16 17
30 29 29 28 28 28 27 27 26 25 25 25 24 24 23 21 20 18 16 15 14 13 12 11 11 11 10 9 9 9 9 9 8 8 8 8 8 8 9 11 13 14 15 16
30 30 30 29 29 28 28 27 26 25 25 25 24 23 22 20 19 18 16 15 14 13 12 11 11 10 9 9 9 9 8 8 7 7 7 7 7 8 8 10 12 13 14 16
31 31 30 30 29 29 28 27 26 26 25 24 23 22 21 19 18 17 15 14 14 13 13 12 12 11 10 9 9 8 8 7 7 6 6 6 6 6 7 9 10 12 13 15
31 31 30 30 29 29 28 27 27 26 25 24 22 21 20 19 17 16 15 14 14 13 13 13 12 12 11 10 9 8 7 7 6 6 5 4 5 6 7 8 10 11 13 15
30 30 29 29 28 28 27 26 26 25 24 24 22 21 20 19 18 16 15 14 14 14 13 13 12 11 10 10 8 8 7 7 6 5 4 4 4 5 6 8 9 11 13 15
29 29 28 28 27 27 26 26 25 24 23 23 21 20 19 19 18 17 16 15 15 14 13 13 12 11 10 10 9 8 7 7 6 4 3 3 3 4 6 6 8 10 12 15
29 28 27 26 26 26 25 25 24 23 22 21 20 20 19 19 18 18 17 16 15 14 14 14 13 12 11 10 9 8 7 7 5 4 4 3 3 4 5 6 7 10 12 14
27 27 26 25 25 24 24 23 23 22 21 21 20 20 19 19 18 18 17 17 16 15 14 14 12 12 11 11 10 9 8 7 6 5 5 4 4 4 4 5 7 9 11 13
25 25 25 24 23 22 22 21 21 22 21 21 20 20 20 19 19 18 18 17 16 15 14 13 13 12 11 11 10 9 8 7 6 5 4 4 3 4 5 5 7 8 10 12
25 24 24 23 21 20 20 20 20 21 21 21 21 20 20 19 19 19 18 17 16 16 15 14 13 12 12 11 10 9 7 7 6 5 4 4 4 4 5 6 7 8 10 12
24 24 23 22 21 20 20 20 20 21 21 20 20 20 19 19 18 18 18 17 17 16 16 15 14 13 12 11 9 9 8 7 7 6 5 5 4 4 5 6 7 9 10 12
24 24 23 23 22 21 21 20 20 21 21 20 20 20 19 19 19 18 18 17 17 17 16 15 14 13 12 11 10 9 9 8 8 7 6 6 6 5 6 7 8 9 10 12
24 24 24 24 23 22 21 20 19 20 21 21 20 19 18 18 18 18 18 18 17 17 17 16 15 14 13 12 11 10 10 9 9 8 7 7 7 6 6 7 8 9 10 12
25 25 25 25 23 22 22 21 20 20 20 21 20 19 19 17 17 17 18 18 18 18 17 16 16 15 14 13 12 12 11 11 10 9 8 8 7 7 7 8 8 9 10 12
26 26 26 25 24 24 24 23 22 21 20 20 20 19 19 18 18 18 18 19 19 19 18 17 17 16 15 15 14 13 12 12 11 10 10 9 8 8 8 8 9 10 10 12
Wind_Direction
299 301 304 305 307 310 311 311 312 311 311 312 314 316 317 316 315 316 316 316 317 317 317 320 322 324 326 327 328 329 330 331 331 331 335 333 333 330 327 325 320 317 315 312
299 301 303 304 305 308 310 311 311 312 313 314 315 317 318 316 315 315 316 319 320 318 317 321 324 325 326 328 329 331 332 333 333 334 334 337 337 333 330 329 326 322 319 320
298 300 302 302 305 306 307 309 311 311 312 313 315 317 319 318 317 317 318 320 320 322 322 325 327 329 330 329 329 329 332 334 335 334 334 338 339 337 336 335 333 330 331 330
295 298 300 303 305 305 305 308 310 310 311 313 316 317 317 318 319 320 322 324 324 324 325 327 327 328 330 330 326 328 332 334 337 340 340 342 341 342 341 340 339 338 337 336
293 298 299 300 302 304 304 305 307 308 310 315 316 316 316 318 320 321 323 325 325 326 326 328 328 329 331 331 328 329 332 337 339 341 344 345 346 345 348 349 350 346 341 339
291 293 296 299 300 301 302 302 304 306 308 312 314 313 316 318 319 319 321 323 325 324 324 327 330 329 330 330 330 333 337 338 344 344 347 348 347 350 353 354 352 349 347 347
289 289 291 295 297 298 298 301 302 302 304 308 311 312 314 316 316 318 320 321 323 324 325 326 329 329 330 333 332 334 337 341 346 349 351 350 349 349 352 354 354 353 353 353
287 287 288 294 294 294 295 296 297 297 300 304 308 310 312 314 317 320 320 321 322 322 323 325 327 328 330 334 334 335 340 346 350 352 351 351 353 356 358 358 360 359 360 360
285 285 287 290 291 292 293 294 294 294 297 300 304 306 310 313 315 317 319 320 321 322 323 324 326 331 333 337 336 336 342 349 353 354 355 358 360 4 5 6 7 5 3 1
280 282 285 288 289 290 291 292 293 292 294 298 301 303 306 308 311 314 316 318 319 319 320 322 328 334 338 338 336 337 344 350 353 354 357 2 5 8 10 11 11 10 9 7
278 281 283 284 286 288 289 290 290 290 291 294 296 299 302 304 306 309 311 313 315 318 318 318 322 331 335 334 337 342 348 350 351 353 357 2 5 7 11 13 14 14 13 10
277 279 281 282 284 285 286 286 287 287 287 289 292 294 296 298 301 303 304 306 308 310 312 313 316 322 328 333 338 343 345 345 348 353 360 5 7 11 13 15 16 14 12 9
277 279 280 282 283 284 284 284 284 284 284 286 288 289 292 292 294 295 295 296 298 301 305 306 307 315 321 327 333 336 337 341 346 354 2 6 11 15 15 16 15 12 12 13
276 278 279 280 281 281 281 281 281 282 283 284 284 285 287 286 288 288 286 288 291 292 296 299 301 308 310 313 322 329 333 338 344 352 358 4 9 12 12 12 13 13 13 14
276 277 277 277 277 278 278 278 278 279 281 281 280 281 282 282 282 281 281 282 283 284 290 294 295 297 300 304 311 319 326 331 337 341 347 356 2 4 5 8 10 10 12 12
275 276 276 275 275 276 276 275 274 275 277 278 278 276 276 277 277 277 277 277 277 280 285 287 289 292 292 295 301 309 315 319 324 329 331 341 353 1 4 6 6 7 8 8
275 276 275 274 274 274 274 272 271 272 273 274 274 272 271 272 271 271 271 272 273 277 281 283 282 285 284 286 290 298 305 308 311 312 315 327 342 355 358 1 5 5 5 6
275 274 273 273 272 272 271 269 268 269 269 270 270 267 265 265 265 265 266 268 269 272 277 278 278 278 276 276 282 288 293 298 296 291 291 301 325 344 352 360 4 3 4 4
273 272 271 271 270 269 269 267 265 264 265 265 265 264 262 262 262 262 263 264 264 265 269 272 273 272 270 271 275 280 287 289 283 275 273 278 302 325 339 348 354 357 360 1
270 270 270 270 270 268 267 265 261 259 260 261 262 261 260 258 257 258 259 261 260 259 261 265 265 264 264 266 270 274 280 281 269 264 260 265 281 303 323 335 344 350 356 358
265 267 268 269 268 266 263 261 259 256 256 259 260 260 257 255 255 257 258 258 256 255 256 258 259 258 258 261 264 269 270 265 259 254 250 255 273 295 311 326 338 344 350 353
263 263 264 264 263 262 261 260 259 256 255 256 257 258 257 255 254 255 256 255 253 250 248 250 251 251 252 254 257 259 256 248 245 242 240 252 272 287 304 319 332 339 344 348
262 260 259 258 257 257 258 258 258 257 254 253 256 257 257 255 254 253 251 251 248 244 242 244 246 245 244 246 248 246 240 232 232 232 236 253 266 287 302 315 326 332 337 343
258 257 256 255 256 255 256 257 257 256 254 253 253 255 256 255 252 249 246 245 242 239 239 240 240 238 238 238 238 234 229 225 225 229 237 250 262 277 295 308 320 327 333 339
253 252 252 254 254 252 252 253 254 256 255 254 251 253 255 253 249 245 243 240 238 237 236 235 235 234 233 234 232 229 226 225 225 231 240 250 260 270 285 299 312 323 330 336
249 250 250 250 249 248 248 250 253 258 256 252 249 251 251 250 246 244 241 237 235 235 234 234 234 233 231 230 228 227 226 227 229 233 240 250 258 268 283 295 306 317 324 331
247 247 248 248 247 246 248 251 254 257 257 255 251 249 249 247 245 242 238 234 233 233 233 234 233 231 230 229 226 225 226 228 231 235 242 248 255 266 281 293 303 313 321 328
Height
5840 5838 5837 5835 5833 5830 5829 5826 5824 5822 5818 5815 5811 5808 5805 5801 5798 5794 5791 5788 5784 5780 5776 5773 5769 5765 5761 5758 5754 5750 5746 5742 5739 5735 5733 5730 5727 5724 5721 5719 5716 5714 5711 5709
5836 5834 5833 5831 5829 5827 5824 5822 5820 5817 5814 5811 5807 5804 5801 5797 5794 5790 5787 5784 5780 5776 5773 5769 5765 5762 5758 5755 5751 5748 5744 5740 5737 5734 5731 5728 5725 5722 5719 5717 5714 5711 5709 5706
5832 5830 5829 5827 5825 5823 5820 5818 5816 5813 5810 5806 5804 5800 5797 5793 5790 5786 5783 5780 5776 5772 5769 5765 5762 5759 5755 5752 5749 5745 5742 5739 5735 5732 5730 5727 5724 5720 5717 5715 5712 5709 5706 5703
5827 5827 5825 5825 5821 5819 5816 5814 5811 5808 5806 5802 5799 5796 5793 5790 5786 5783 5779 5776 5772 5769 5766 5762 5759 5756 5753 5749 5746 5743 5740 5737 5734 5731 5728 5725 5722 5719 5716 5713 5710 5707 5704 5701
5823 5821 5819 5819 5816 5814 5811 5809 5807 5804 5802 5798 5795 5792 5789 5786 5783 5779 5776 5772 5769 5766 5763 5760 5757 5753 5750 5747 5744 5741 5738 5735 5732 5729 5726 5724 5721 5717 5714 5711 5708 5705 5702 5700
5817 5816 5814 5814 5811 5808 5807 5804 5803 5800 5797 5795 5792 5790 5787 5783 5779 5776 5772 5769 5766 5763 5760 5757 5754 5751 5748 5745 5742 5739 5737 5734 5731 5728 5725 5722 5719 5716 5713 5710 5707 5704 5701 5698
5811 5809 5808 5807 5805 5804 5803 5801 5798 5795 5793 5791 5788 5786 5782 5779 5775 5772 5769 5765 5762 5760 5757 5754 5751 5749 5746 5743 5741 5738 5735 5733 5730 5727 5724 5721 5718 5715 5712 5709 5706 5703 5700 5697
5805 5804 5804 5801 5799 5798 5797 5794 5792 5790 5788 5786 5784 5781 5778 5775 5771 5768 5765 5762 5759 5757 5754 5752 5749 5747 5744 5742 5739 5736 5734 5732 5729 5726 5723 5720 5717 5714 5711 5708 5706 5703 5700 5697
5799 5799 5796 5794 5793 5791 5790 5788 5786 5785 5783 5781 5779 5776 5774 5771 5768 5764 5762 5759 5756 5754 5752 5749 5747 5745 5742 5740 5738 5736 5733 5731 5728 5726 5723 5720 5717 5714 5711 5708 5706 5703 5699 5696
5790 5790 5788 5787 5786 5784 5783 5782 5780 5778 5777 5775 5773 5771 5769 5766 5764 5761 5758 5755 5753 5751 5749 5747 5745 5743 5741 5739 5737 5735 5733 5730 5728 5725 5723 5720 5717 5715 5712 5709 5706 5703 5700 5696
5782 5782 5780 5779 5778 5777 5776 5774 5773 5771 5770 5769 5767 5766 5764 5761 5759 5757 5755 5752 5750 5748 5746 5745 5743 5741 5740 5738 5736 5734 5732 5730 5727 5724 5722 5720 5718 5715 5712 5710 5707 5704 5701 5697
5774 5773 5772 5771 5770 5769 5768 5766 5765 5764 5763 5762 5761 5759 5758 5756 5754 5752 5751 5749 5747 5745 5744 5742 5741 5739 5738 5736 5735 5733 5731 5728 5726 5724 5722 5720 5717 5715 5713 5710 5708 5705 5701 5698
5764 5763 5763 5762 5761 5760 5759 5758 5757 5756 5756 5755 5754 5753 5751 5750 5749 5747 5746 5745 5744 5742 5741 5739 5738 5737 5736 5734 5733 5731 5729 5727 5725 5723 5721 5720 5717 5715 5713 5711 5709 5706 5702 5699
5754 5754 5753 5753 5752 5751 5750 5749 5749 5748 5748 5747 5746 5745 5744 5743 5743 5742 5741 5740 5739 5739 5738 5736 5736 5735 5734 5732 5731 5729 5727 5726 5724 5723 5721 5719 5717 5715 5714 5711 5709 5706 5703 5700
5744 5744 5743 5743 5742 5742 5741 5741 5740 5740 5740 5739 5738 5738 5737 5737 5737 5736 5736 5736 5735 5735 5734 5733 5732 5732 5731 5730 5729 5727 5726 5724 5723 5722 5720 5719 5717 5715 5713 5711 5709 5706 5703 5700
5734 5733 5733 5733 5732 5732 5732 5732 5732 5732 5731 5731 5731 5731 5731 5730 5730 5731 5731 5731 5731 5730 5730 5729 5729 5728 5727 5727 5726 5725 5724 5723 5721 5720 5719 5718 5716 5714 5713 5711 5709 5706 5704 5700
5724 5723 5723 5723 5723 5723 5723 5723 5723 5723 5723 5723 5724 5724 5724 5724 5724 5725 5725 5725 5726 5726 5725 5725 5725 5724 5724 5723 5723 5722 5722 5721 5720 5718 5717 5716 5715 5714 5712 5711 5709 5706 5704 5701
5714 5714 5714 5714 5714 5714 5714 5714 5715 5715 5715 5716 5716 5717 5717 5718 5718 5719 5720 5720 5721 5721 5721 5721 5721 5720 5720 5720 5720 5719 5719 5718 5717 5717 5716 5715 5714 5713 5712 5710 5708 5706 5703 5700
5704 5704 5704 5705 5705 5705 5705 5706 5706 5707 5708 5708 5709 5710 5711 5712 5713 5713 5714 5715 5715 5716 5717 5717 5716 5717 5717 5717 5716 5716 5716 5715 5715 5714 5714 5713 5713 5712 5711 5709 5707 5705 5703 5700
5694 5695 5695 5696 5696 5697 5697 5698 5699 5700 5701 5702 5702 5703 5704 5705 5706 5707 5708 5709 5710 5711 5712 5712 5712 5713 5713 5713 5713 5713 5712 5712 5712 5712 5712 5711 5711 5710 5709 5708 5706 5704 5702 5699
5685 5686 5687 5687 5688 5689 5689 5690 5691 5692 5694 5695 5696 5697 5698 5699 5700 5701 5702 5704 5705 5705 5706 5707 5707 5708 5709 5709 5709 5709 5709 5709 5709 5709 5709 5709 5709 5709 5708 5707 5705 5703 5701 5698
5677 5678 5679 5680 5680 5681 5682 5683 5684 5685 5687 5688 5689 5690 5691 5692 5694 5695 5696 5698 5699 5700 5701 5702 5703 5704 5704 5705 5705 5705 5706 5706 5706 5707 5707 5707 5707 5707 5706 5705 5703 5701 5699 5697
5669 5670 5671 5672 5673 5674 5675 5676 5677 5679 5680 5681 5683 5684 5685 5686 5687 5688 5690 5692 5693 5694 5695 5697 5698 5699 5700 5701 5701 5702 5703 5703 5704 5704 5705 5705 5705 5705 5704 5703 5701 5700 5697 5695
5660 5661 5663 5664 5665 5667 5668 5669 5670 5672 5673 5674 5676 5677 5679 5680 5681 5682 5684 5686 5687 5689 5690 5692 5693 5695 5696 5697 5698 5699 5700 5700 5701 5702 5702 5703 5703 5702 5702 5701 5699 5697 5695 5693
5651 5653 5655 5656 5658 5659 5661 5662 5663 5665 5666 5668 5669 5671 5672 5673 5675 5676 5678 5680 5681 5683 5685 5687 5689 5690 5692 5693 5694 5696 5697 5698 5699 5699 5700 5700 5700 5699 5699 5698 5697 5695 5693 5691
5643 5645 5647 5648 5650 5652 5654 5655 5657 5658 5659 5661 5663 5664 5665 5667 5668 5670 5672 5674 5676 5678 5680 5682 5684 5686 5687 5689 5690 5692 5693 5694 5695 5696 5697 5697 5697 5696 5696 5695 5694 5692 5690 5688
5635 5637 5639 5641 5643 5644 5646 5648 5650 5651 5653 5654 5656 5657 5659 5661 5662 5664 5666 5668 5670 5672 5675 5677 5679 5681 5683 5685 5686 5688 5689 5691 5692 5693 5693 5693 5693 5693 5693 5692 5691 5689 5688 5686